sat.trackr.live / text

‹ back to catalog

STARLINK-34294

NORAD 64599 · 2025-137F

PAYLOAD ACTIVE UNKNOWN

§ Identity

Operator
Country
US
Launch date
2025-06-25
Launch site
AFETR
Launch vehicle
Mass (kg)
RCS (m²)

Purposes: comms

External: N2YO · Heavens-Above · Gunter

§ Orbital elements

Epoch: 2026-05-24T23:35:21.414336Z

Period
94.10 min
Inclination
53.1603°
Eccentricity
0.0000567
Mean motion
15.30218616 rev/d
Perigee alt
474.8 km
Apogee alt
475.5 km
Semi-major
6,853.3 km
B*
7.1321e-4
RAAN
341.0103°
Arg perigee
117.6843°
Mean anomaly
242.4216°
Rev number
5,241

§ Raw data

STARLINK-342941 64599U 25137F   26144.98288674  .00020836  00000+0  71321-3 0  99952 64599  53.1603 341.0103 0000567 117.6843 242.4216 15.30218616 52419

JSON: /api/v1/satellites/64599 · /tle

For live sub-satellite position, see the globe view (requires WebGL).

§ Visibility from observer

Set your observer location to see the next 7 days of passes ≥ 10°. The values pass through the URL so the page stays shareable.

No JS? Fill the form by hand. The geolocation button needs JavaScript.